Tracking 29059 objects as of 17-Jun-2024
HD Live streaming from Space Station
objects crossing your sky now

STARLINK-3989

Track STARLINK-3989 now!
10-day predictions
STARLINK-3989 is classified as:


NORAD ID: 52630
Int'l Code: 2022-052AJ
Perigee: 546.1 km
Apogee: 547.7 km
Inclination: 53.2 °
Period: 95.4 minutes
Semi major axis: 6917 km
RCS: Unknown
Launch date: May 14, 2022
Source: United States (US)
Launch site: AIR FORCE EASTERN TEST RANGE (AFETR)
Your satellite tracking list
Your tracking list is empty




NASA's NSSDC Master Catalog

Two Line Element Set (TLE):
1 52630U 22052AJ  24168.85252743  .00000657  00000-0  59358-4 0  9996
2 52630  53.2158 221.0623 0001136  95.8177 264.2945 15.08838313115757
Source of the keplerian elements: AFSPC